Mackinac Island, MI

4:54 AM EST on January 17, 2018 (GMT -0500)
Mackinac Island

Weather History for KMCD - June, 2013

Change the Weather History Date:

Thursday, June 13, 2013

  Actual Average Record
Temperature  
Mean Temperature 62 °F -  
Max Temperature 73 °F 64 °F 87 °F (2007)
Min Temperature 52 °F 49 °F 42 °F (1979)
Degree Days  
Heating Degree Days 2    
Growing Degree Days 12 (Base 50)    
Moisture  
Dew Point 51 °F    
Average Humidity 65    
Maximum Humidity 84    
Minimum Humidity 47    
Precipitation  
Precipitation 0.00 in - - ()
Sea Level Pressure  
Sea Level Pressure 29.87 in    
Wind  
Wind Speed 9 mph (North)    
Max Wind Speed 15 mph    
Max Gust Speed 23 mph    
Visibility 10 miles    
Events      
Averages and records for this station are not official NWS values.
T = Trace of Precipitation, MM = Missing Value Source: NWS Daily Summary

Daily Weather History Graph

Daily Weather History Graph

Search for Another Location

Airport or City:

Trip Planner

Search our weather history database for the weather conditions in past years. The results will help you decide how hot, cold, wet, or windy it might be!

Date:

Astronomy

Jun. 13, 2013 Rise Set
Actual Time 5:47 AM EDT 9:29 PM EDT
Civil Twilight 5:09 AM EDT 10:08 PM EDT
Nautical Twilight 4:18 AM EDT 10:59 PM EDT
Astronomical Twilight 3:07 AM EDT 12:10 AM EDT
Moon 10:36 AM EDT (6/13) No Moon Set
Length of Visible Light 16h 58m
Length of Day
15h 41m
Waxing Crescent, 21% of the Moon is Illuminated
Jun 13
Waxing Crescent
Jun 16
First Quarter
Jun 23
Full
Jun 30
Last Quarter
Jul 8
New

Hourly Weather History & Observations

Time (EDT) Temp. Dew Point Humidity Pressure Visibility Wind Dir Wind Speed Gust Speed Precip Events Conditions
12:13 AM 61.3 °F 51.8 °F 71% 29.76 in 10.0 mi NNE 6.9 mph - N/A   Clear
12:34 AM 60.3 °F 51.4 °F 73% 29.76 in 10.0 mi NNE 5.8 mph - N/A   Clear
12:54 AM 61.0 °F 49.1 °F 65% 29.75 in 10.0 mi North 6.9 mph - N/A   Clear
1:13 AM 59.4 °F 49.5 °F 70% 29.75 in 10.0 mi North 8.1 mph - N/A   Clear
1:34 AM 59.0 °F 49.3 °F 70% 29.75 in 10.0 mi North 9.2 mph - N/A   Clear
2:13 AM 58.1 °F 49.5 °F 73% 29.75 in 10.0 mi North 8.1 mph - N/A   Clear
2:34 AM 58.1 °F 48.4 °F 70% 29.75 in 10.0 mi North 9.2 mph - N/A   Clear
2:54 AM 57.7 °F 48.4 °F 71% 29.75 in 10.0 mi North 8.1 mph - N/A   Clear
3:13 AM 56.5 °F 48.4 °F 74% 29.75 in 10.0 mi NNW 8.1 mph - N/A   Clear
3:34 AM 55.8 °F 48.4 °F 76% 29.75 in 10.0 mi North 8.1 mph - N/A   Clear
3:54 AM 55.6 °F 48.4 °F 77% 29.75 in 10.0 mi North 8.1 mph - N/A   Clear
4:14 AM 54.7 °F 48.2 °F 79% 29.75 in 10.0 mi North 5.8 mph - N/A   Clear
4:34 AM 54.5 °F 48.4 °F 80% 29.75 in 10.0 mi NNW 8.1 mph - N/A   Clear
4:54 AM 54.0 °F 48.2 °F 81% 29.75 in 10.0 mi North 8.1 mph - N/A   Clear
5:13 AM 53.6 °F 48.4 °F 82% 29.75 in 10.0 mi North 6.9 mph - N/A   Clear
5:34 AM 52.9 °F 48.2 °F 84% 29.76 in 10.0 mi North 6.9 mph - N/A   Clear
5:54 AM 53.6 °F 48.2 °F 82% 29.77 in 10.0 mi North 5.8 mph - N/A   Clear
6:14 AM 53.2 °F 48.6 °F 84% 29.78 in 10.0 mi North 9.2 mph - N/A   Clear
6:34 AM 53.8 °F 49.1 °F 84% 29.78 in 10.0 mi North 8.1 mph - N/A   Clear
6:54 AM 54.5 °F 49.8 °F 84% 29.79 in 10.0 mi North 6.9 mph - N/A   Clear
7:14 AM 55.4 °F 49.3 °F 80% 29.80 in 10.0 mi North 10.4 mph - N/A   Clear
7:34 AM 56.3 °F 49.3 °F 77% 29.81 in 10.0 mi North 10.4 mph - N/A   Clear
7:54 AM 57.7 °F 50.2 °F 76% 29.81 in 10.0 mi North 9.2 mph - N/A   Clear
8:14 AM 59.4 °F 51.1 °F 74% 29.81 in 10.0 mi North 8.1 mph - N/A   Clear
8:34 AM 60.3 °F 51.4 °F 73% 29.82 in 10.0 mi North 6.9 mph - N/A   Clear
8:54 AM 61.7 °F 52.0 °F 70% 29.82 in 10.0 mi North 6.9 mph - N/A   Clear
9:14 AM 62.6 °F 52.5 °F 70% 29.83 in 7.0 mi North 8.1 mph - N/A   Clear
9:34 AM 64.0 °F 53.2 °F 68% 29.83 in 10.0 mi North 9.2 mph - N/A   Clear
9:54 AM 65.7 °F 54.1 °F 66% 29.84 in 10.0 mi North 6.9 mph - N/A   Scattered Clouds
10:14 AM 66.7 °F 54.0 °F 63% 29.84 in 10.0 mi North 8.1 mph - N/A   Scattered Clouds
10:34 AM 67.1 °F 53.1 °F 61% 29.84 in 10.0 mi North 12.7 mph - N/A   Clear
10:54 AM 67.3 °F 54.1 °F 63% 29.85 in 10.0 mi North 9.2 mph 17.3 mph N/A   Scattered Clouds
11:14 AM 66.9 °F 54.5 °F 64% 29.85 in 10.0 mi North 10.4 mph 16.1 mph N/A   Mostly Cloudy
11:34 AM 66.0 °F 54.9 °F 67% 29.86 in 10.0 mi North 10.4 mph 20.7 mph N/A   Overcast
11:54 AM 66.9 °F 55.4 °F 66% 29.87 in 10.0 mi North 10.4 mph 16.1 mph N/A   Overcast
12:14 PM 70.0 °F 56.5 °F 62% 29.88 in 10.0 mi North 9.2 mph - N/A   Mostly Cloudy
12:34 PM 69.8 °F 55.4 °F 60% 29.88 in 10.0 mi North 8.1 mph - N/A   Overcast
12:53 PM 70.7 °F 56.1 °F 60% 29.88 in 10.0 mi North 10.4 mph - N/A   Overcast
1:14 PM 70.0 °F 54.7 °F 58% 29.88 in 10.0 mi North 9.2 mph 19.6 mph N/A   Overcast
1:34 PM 71.1 °F 55.4 °F 58% 29.88 in 10.0 mi North 10.4 mph 17.3 mph N/A   Mostly Cloudy
1:53 PM 72.0 °F 54.9 °F 55% 29.89 in 10.0 mi North 10.4 mph 17.3 mph N/A   Scattered Clouds
2:14 PM 73.2 °F 55.4 °F 54% 29.88 in 10.0 mi North 9.2 mph - N/A   Scattered Clouds
2:34 PM 73.2 °F 54.5 °F 52% 29.89 in 10.0 mi North 10.4 mph - N/A   Clear
2:53 PM 73.4 °F 53.6 °F 50% 29.89 in 10.0 mi North 10.4 mph - N/A   Clear
3:14 PM 73.0 °F 53.2 °F 50% 29.89 in 10.0 mi North 9.2 mph 17.3 mph N/A   Clear
3:34 PM 73.6 °F 52.2 °F 47% 29.89 in 10.0 mi North 12.7 mph 18.4 mph N/A   Clear
3:53 PM 73.6 °F 52.5 °F 48% 29.90 in 10.0 mi North 15.0 mph 19.6 mph N/A   Clear
4:14 PM 73.2 °F 52.7 °F 48% 29.91 in 10.0 mi North 9.2 mph 17.3 mph N/A   Clear
4:34 PM 72.5 °F 52.9 °F 50% 29.92 in 10.0 mi North 12.7 mph 19.6 mph N/A   Clear
4:53 PM 71.8 °F 53.2 °F 52% 29.92 in 10.0 mi North 15.0 mph 23.0 mph N/A   Scattered Clouds
5:14 PM 72.1 °F 53.2 °F 51% 29.93 in 10.0 mi North 11.5 mph 20.7 mph N/A   Scattered Clouds
5:33 PM 73.4 °F 53.4 °F 49% 29.93 in 10.0 mi NNW 13.8 mph 21.9 mph N/A   Mostly Cloudy
5:54 PM 72.3 °F 52.5 °F 50% 29.93 in 10.0 mi North 12.7 mph 18.4 mph N/A   Scattered Clouds
6:14 PM 70.3 °F 52.3 °F 53% 29.93 in 10.0 mi North 11.5 mph 17.3 mph N/A   Mostly Cloudy
6:33 PM 69.3 °F 52.3 °F 55% 29.94 in 10.0 mi North 12.7 mph 18.4 mph N/A   Scattered Clouds
6:54 PM 70.2 °F 52.0 °F 52% 29.95 in 10.0 mi North 12.7 mph 18.4 mph N/A   Clear
7:14 PM 69.6 °F 52.0 °F 53% 29.96 in 10.0 mi North 13.8 mph 19.6 mph N/A   Scattered Clouds
7:33 PM 68.4 °F 51.8 °F 55% 29.97 in 10.0 mi North 11.5 mph 18.4 mph N/A   Clear
7:54 PM 67.5 °F 52.0 °F 58% 29.97 in 10.0 mi North 15.0 mph 20.7 mph N/A   Clear
8:14 PM 66.0 °F 51.4 °F 59% 29.98 in 10.0 mi North 11.5 mph 21.9 mph N/A   Clear
8:33 PM 64.8 °F 51.8 °F 63% 29.99 in 10.0 mi North 11.5 mph 18.4 mph N/A   Clear
8:54 PM 63.9 °F 50.9 °F 63% 30.00 in 10.0 mi North 9.2 mph 19.6 mph N/A   Clear
9:14 PM 63.1 °F 50.2 °F 63% 29.99 in 10.0 mi North 12.7 mph 21.9 mph N/A   Clear
9:33 PM 62.6 °F 49.3 °F 62% 30.00 in 10.0 mi North 10.4 mph 20.7 mph N/A   Clear
9:54 PM 61.7 °F 48.9 °F 63% 30.00 in 10.0 mi North 9.2 mph 16.1 mph N/A   Clear
10:14 PM 60.8 °F 47.7 °F 62% 30.00 in 10.0 mi North 11.5 mph 18.4 mph N/A   Clear
10:33 PM 60.1 °F 46.0 °F 60% 30.01 in 10.0 mi North 9.2 mph 17.3 mph N/A   Clear
10:54 PM 59.2 °F 45.5 °F 60% 30.01 in 10.0 mi North 12.7 mph 19.6 mph N/A   Clear
11:14 PM 58.5 °F 45.0 °F 61% 30.02 in 10.0 mi North 8.1 mph - N/A   Clear
11:34 PM 57.6 °F 45.1 °F 63% 30.02 in 10.0 mi North 8.1 mph - N/A   Clear
11:54 PM 56.8 °F 45.0 °F 64% 30.02 in 10.0 mi North 8.1 mph - N/A   Clear